Погода в Серебряково

Россия / Кемеровская область (Кузбасс)     55°41′34″N   89°01′19″E
темп.,
°C
ветер,
м/с
пор.,
м/с
влажн.,
%
обл.,
%
осадки,
мм/ч
давл.,
гПа
погр.,
м
17 мая, пн
пн1701:00+9всв239396 0.0 1013120
04:00+8св2293100 0.0 1013106
07:00+8св2288100 0.1 1014127
10:00+10ссз1278100 0.0 1014361
13:00+12ссз2266100 0.0 1014797
16:00+13сз4564100 0.0 10141026
19:00+13зсз356728 0.0 10141044
22:00+11сз117897 0.0 101417
18 мая, вт
вт1801:00+10юз228278 0.0 101218
04:00+9ююз2286100 0.0 101022
07:00+11ююв2685100 0.2 1006150
10:00+12ююз51395100 12.4 1002647
13:00+17зюз101679100 13.2 9971438
16:00+13з101593100 3.9 996821
19:00+7ссз6991100 4.3 1007782
22:00+7с359074 0.1 1009438
19 мая, ср
ср1901:00+5ссз009384 0.1 101010
04:00+5св2291100 0.0 100961
07:00+6ссв2487100 0.0 1008217
10:00+7ссв4661100 0.0 1008700
13:00+9с5650100 0.0 10081366
16:00+10с664161 0.0 10072107
19:00+9с5650100 0.0 10091880
22:00+4ссз496082 0.0 1010292
20 мая, чт
чт2001:00+3с4961100 0.0 1010347
04:00+2с2767100 0.0 1010294
07:00+2с3561100 0.0 1011335
10:00+5ссз4647100 0.1 10111880
13:00+6ссз5646100 0.4 10121871
16:00+7ссз5534100 0.1 10122519
19:00+6сз55455 0.1 10141721
22:00+2сз388213 0.1 1016220
21 мая, пт
пт2101:00+2сз349799 1.2 1017279
04:00+1з5109592 0.4 1019327
07:00+2зсз58802 0.4 1021331
10:00+7зсз68590 0.0 1022814
13:00+10зсз7741100 0.0 10212229
16:00+11зсз684090 0.0 10212236
19:00+10сз4748100 0.0 10211095
22:00+7зюз3360100 0.0 102248